Regional Weather Roundup
Issued by NWS

Home | Current Version | Previous Version | Graphics & Text | Print | Product List | Glossary On
Versions: 1 2 3 4 5 6 7 8 9 10 11 12 13 14 15 16 17 18 19 20 21 22 23 24 25 26 27 28 29 30 31 32 33 34 35 36 37 38 39 40 41 42 43 44 45 46 47 48 49 50
000
ASUS43 KFSD 241010
RWRSD

WEATHER ROUNDUP FOR SOUTH DAKOTA
NATIONAL WEATHER SERVICE SIOUX FALLS SD
500 AM CDT SUN MAY 24 2015

NOTE: "FAIR" INDICATES FEW OR NO CLOUDS BELOW 12,000 FEET WITH NO
SIGNIFICANT WEATHER AND/OR OBSTRUCTIONS TO VISIBILITY.


SDZ001>005-009-010-012>017-241100-
NORTHWEST AND NORTH CENTRAL SOUTH DAKOTA

CITY           SKY/WX    TMP DP  RH WIND       PRES   REMARKS
BUFFALO          N/A     51  49  92 NE8       29.97F
FAITH            N/A     52  50  93 NE8       30.01F
MOBRIDGE       CLOUDY    56  52  86 E12       30.01F
$$

SDZ012>016-024>037-041>051-057-063-072>074-241100-
SOUTHWEST AND SOUTH CENTRAL SOUTH DAKOTA

CITY           SKY/WX    TMP DP  RH WIND       PRES   REMARKS
RAPID CTY ARPT LGT RAIN  53  52  96 E10       29.97F
PIERRE         CLOUDY    54  53  97 NE7       29.98F
CUSTER         LGT RAIN  47  45  93 E12       29.97F FOG
ELLSWORTH AFB  LGT RAIN  52  52 100 E12       29.97  FOG
PHILIP         LGT RAIN  54  54 100 E10       29.97F FOG
PINE RIDGE     CLOUDY    53  50  89 E12       29.92F
SPEARFISH      LGT RAIN  50  50 100 E13G18    29.99F
WINNER         CLOUDY    56  53  90 E10       29.96F FOG
$$

SDZ004>011-016>023-039-040-241100-
NORTHEAST SOUTH DAKOTA

CITY           SKY/WX    TMP DP  RH WIND       PRES   REMARKS
ABERDEEN       CLOUDY    55  49  80 NE7       30.03F
WATERTOWN      CLOUDY    56  48  74 E5        30.03F
BROOKINGS      CLOUDY    57  55  94 E7        30.02F
SISSETON         N/A     54  49  83 SE3       30.04F
$$

SDZ017-020-022-023-036>040-048>070-241100-
SOUTHEAST SOUTH DAKOTA

CITY           SKY/WX    TMP DP  RH WIND       PRES   REMARKS
SIOUX FALLS    DRIZZLE   58  57  97 E7        29.98F
HURON          CLOUDY    55  53  93 NE5       29.99F FOG
CHAMBERLAIN    CLOUDY    55  55 100 NE6       29.97F FOG
MITCHELL       CLOUDY    58  56  93 E5        29.97F FOG
YANKTON        CLOUDY    57  55  94 E13       29.93F
$$

ABBREVIATIONS USED IN REMARKS
   TC - TEMPERATURE IN CELSIUS
  WCI - WIND CHILL INDEX
   HX - HEAT INDEX
  VSB - VISIBILITY



USA.gov is the U.S. government's official web portal to all federal, state and local government web resources and services.